Orbital Elements at Epoch 2459000.5 (2020-May-31.0) TDB
Reference: JPL 16 (heliocentric ecliptic J2000)
Element | Value | Uncertainty (1-sigma) | Units |
e | .01980922798658592 | 5.5756e-08 | |
a | 2.773976325945942 | 2.088e-08 | au |
q | 2.719025996475887 | 1.6405e-07 | au |
i | .774925453578577 | 4.5283e-06 | deg |
node | 137.568591156553 | 0.00045888 | deg |
peri | 117.074782977803 | 0.00048226 | deg |
M | 324.4129282849015 | 0.00014772 | deg |
tp | 2459167.317767628622 (2020-Nov-13.81776763) | 0.00069211 | TDB |
period | 1687.534080552759 4.62 | 1.9053e-05 5.216e-08 | d yr |
n | .2133290249652798 | 2.4086e-09 | deg/d |
Q | 2.828926655415998 | 2.1294e-08 | au |
|
| | Orbit Determination Parameters
Additional Information
|